User: anonymous   Login
Location: Brachstadt
(48.6975°N, 10.6755°E)
Time: 12:08:46
(UTC+00:00)
Language:

Resurs 01 Rocket - Orbit

View from above orbital plane
View from above orbital plane
View from above satellite
View from above satellite

Ground track
Ground track

The orbit data is extracted from the following two-line orbital elements,

1 23343U 94074B   21131.78378937  .00000036  00000-0  12310-4 0  9999
2 23343  97.9493 186.9711 0007241 161.8362 316.5368 14.76878292426875
Epoch (UTC): 11 May 2021 18:48:39
Eccentricity: 0.0007241
inclination: 97.9493°
perigee height: 634 km
apogee height: 644 km
right ascension of ascending node: 186.9711°
argument of perigee: 161.8362°
revolutions per day: 14.76878292
mean anomaly at epoch: 316.5368°
orbit number at epoch: 42687

The dashed part of the orbit path shows where the satellite is in the earth's shadow,  

DLR